N1190M -KBHM

Flight info

Callsign N1190M
Flight time N/A
Altitude VFR
Route
Aircraft C172/L-DOV/C

Departure

Time N/A
Airport -

Arrival

Time 2026-05-03 21:18
Airport Birmingham-Shuttlesworth International Airport (KBHM)
Time Latitude Longitude Altitude Speed Heading
2026-05-03 20:49 33.63154 -85.75244 6492 ft 125 kts 267°
2026-05-03 20:49 33.63031 -85.76254 6498 ft 124 kts 267°
2026-05-03 20:50 33.62903 -85.77289 6499 ft 127 kts 267°
2026-05-03 20:50 33.62773 -85.78346 6502 ft 126 kts 266°
2026-05-03 20:50 33.62645 -85.79367 6502 ft 126 kts 267°
2026-05-03 20:50 33.62523 -85.80403 6498 ft 124 kts 267°
2026-05-03 20:51 33.62392 -85.81437 6498 ft 125 kts 266°
2026-05-03 20:51 33.62265 -85.82470 6494 ft 124 kts 267°
2026-05-03 20:51 33.62136 -85.83485 6498 ft 123 kts 267°
2026-05-03 20:51 33.62012 -85.84512 6502 ft 127 kts 267°
2026-05-03 20:52 33.61880 -85.85585 6468 ft 130 kts 267°
2026-05-03 20:52 33.61750 -85.86637 6458 ft 124 kts 267°
2026-05-03 20:52 33.61624 -85.87637 6459 ft 118 kts 266°
2026-05-03 20:52 33.61504 -85.88591 6455 ft 113 kts 267°
2026-05-03 20:53 33.61390 -85.89525 6464 ft 115 kts 268°
2026-05-03 20:53 33.61270 -85.90491 6464 ft 118 kts 267°
2026-05-03 20:53 33.61148 -85.91477 6464 ft 120 kts 267°
2026-05-03 20:53 33.61025 -85.92470 6464 ft 121 kts 267°
2026-05-03 20:54 33.60903 -85.93472 6470 ft 123 kts 266°
2026-05-03 20:54 33.60645 -85.95485 6469 ft 124 kts 267°
2026-05-03 20:54 33.60522 -85.96528 6468 ft 127 kts 267°
2026-05-03 20:55 33.60393 -85.97567 6460 ft 124 kts 266°
2026-05-03 20:55 33.60263 -85.98585 6470 ft 124 kts 266°
2026-05-03 20:55 33.60131 -85.99635 6467 ft 129 kts 267°
2026-05-03 20:55 33.60001 -86.00698 6463 ft 127 kts 266°
2026-05-03 20:56 33.59870 -86.01751 6469 ft 129 kts 267°
2026-05-03 20:56 33.59739 -86.02816 6462 ft 128 kts 267°
2026-05-03 20:56 33.59609 -86.03865 6466 ft 127 kts 266°
2026-05-03 20:56 33.59477 -86.04918 6461 ft 128 kts 267°
2026-05-03 20:57 33.59341 -86.05948 6452 ft 122 kts 266°
2026-05-03 20:57 33.59213 -86.06948 6457 ft 120 kts 267°
2026-05-03 20:57 33.59086 -86.07941 6458 ft 121 kts 266°
2026-05-03 20:57 33.58965 -86.08925 6459 ft 120 kts 267°
2026-05-03 20:58 33.58840 -86.09922 6459 ft 121 kts 267°
2026-05-03 20:58 33.58715 -86.10925 6459 ft 123 kts 267°
2026-05-03 20:58 33.58589 -86.11929 6457 ft 121 kts 266°
2026-05-03 20:58 33.58463 -86.12930 6459 ft 122 kts 267°
2026-05-03 20:59 33.58335 -86.13952 6456 ft 125 kts 266°
2026-05-03 20:59 33.58207 -86.14968 6459 ft 122 kts 266°
2026-05-03 20:59 33.58140 -86.15978 6469 ft 122 kts 274°
2026-05-03 20:59 33.58116 -86.17022 6466 ft 127 kts 274°
2026-05-03 21:00 33.58085 -86.18079 6457 ft 125 kts 273°
2026-05-03 21:00 33.58065 -86.18758 6454 ft 122 kts 273°
2026-05-03 21:00 33.58028 -86.20110 6461 ft 120 kts 273°
2026-05-03 21:00 33.57999 -86.21132 6468 ft 124 kts 272°
2026-05-03 21:01 33.57970 -86.22160 6448 ft 122 kts 273°
2026-05-03 21:01 33.57945 -86.23172 6450 ft 121 kts 273°
2026-05-03 21:01 33.57916 -86.24191 6457 ft 125 kts 273°
2026-05-03 21:01 33.57886 -86.25253 6446 ft 127 kts 272°
2026-05-03 21:02 33.57853 -86.26309 6460 ft 128 kts 274°
2026-05-03 21:02 33.57829 -86.27379 6457 ft 127 kts 272°
2026-05-03 21:02 33.57799 -86.28433 6460 ft 125 kts 274°
2026-05-03 21:02 33.57767 -86.29484 6457 ft 127 kts 274°
2026-05-03 21:03 33.57737 -86.30515 6447 ft 123 kts 273°
2026-05-03 21:03 33.57705 -86.31541 6447 ft 122 kts 273°
2026-05-03 21:03 33.57675 -86.32552 6435 ft 122 kts 273°
2026-05-03 21:03 33.57651 -86.33569 6393 ft 122 kts 274°
2026-05-03 21:04 33.57622 -86.34576 6335 ft 120 kts 274°
2026-05-03 21:04 33.57594 -86.35582 6266 ft 121 kts 272°
2026-05-03 21:04 33.57564 -86.36588 6193 ft 120 kts 273°
2026-05-03 21:04 33.57535 -86.37588 6097 ft 120 kts 273°
2026-05-03 21:05 33.57506 -86.38590 6003 ft 120 kts 272°
2026-05-03 21:05 33.57477 -86.39588 5922 ft 119 kts 273°
2026-05-03 21:05 33.57449 -86.40561 5825 ft 118 kts 273°
2026-05-03 21:05 33.57421 -86.41544 5721 ft 119 kts 273°
2026-05-03 21:06 33.57392 -86.42533 5620 ft 118 kts 272°
2026-05-03 21:06 33.57358 -86.43538 5497 ft 121 kts 272°
2026-05-03 21:06 33.57333 -86.44559 5337 ft 124 kts 271°
2026-05-03 21:06 33.57300 -86.45618 5191 ft 128 kts 271°
2026-05-03 21:07 33.57270 -86.46671 5046 ft 125 kts 271°
2026-05-03 21:07 33.57242 -86.47715 4899 ft 125 kts 271°
2026-05-03 21:07 33.57206 -86.48759 4754 ft 128 kts 270°
2026-05-03 21:07 33.57177 -86.49805 4602 ft 123 kts 272°
2026-05-03 21:08 33.57144 -86.50822 4478 ft 123 kts 270°
2026-05-03 21:08 33.57114 -86.51857 4326 ft 127 kts 271°
2026-05-03 21:08 33.57077 -86.52916 4160 ft 126 kts 270°
2026-05-03 21:08 33.57057 -86.53929 4008 ft 121 kts 271°
2026-05-03 21:09 33.57023 -86.54912 3858 ft 117 kts 271°
2026-05-03 21:09 33.56990 -86.55895 3722 ft 117 kts 271°
2026-05-03 21:09 33.56961 -86.56874 3566 ft 116 kts 270°
2026-05-03 21:09 33.56931 -86.57824 3420 ft 113 kts 270°
2026-05-03 21:10 33.56905 -86.58768 3264 ft 113 kts 270°
2026-05-03 21:10 33.56875 -86.59695 3117 ft 111 kts 271°
2026-05-03 21:10 33.56843 -86.60616 2963 ft 110 kts 269°
2026-05-03 21:10 33.56817 -86.61523 2815 ft 109 kts 271°
2026-05-03 21:11 33.56791 -86.62413 2668 ft 107 kts 269°
2026-05-03 21:11 33.56766 -86.63325 2532 ft 112 kts 271°
2026-05-03 21:11 33.56735 -86.64292 2367 ft 119 kts 270°
2026-05-03 21:11 33.56709 -86.65282 2195 ft 116 kts 270°
2026-05-03 21:12 33.56699 -86.66218 2059 ft 111 kts 272°
2026-05-03 21:12 33.56676 -86.67167 1911 ft 117 kts 270°
2026-05-03 21:12 33.56679 -86.68150 1753 ft 120 kts 274°
2026-05-03 21:12 33.56656 -86.69126 1694 ft 112 kts 270°
2026-05-03 21:13 33.56643 -86.70035 1714 ft 110 kts 271°
2026-05-03 21:13 33.56625 -86.70960 1694 ft 109 kts 271°
2026-05-03 21:13 33.56334 -86.71781 1691 ft 113 kts 236°
2026-05-03 21:13 33.55833 -86.72507 1702 ft 115 kts 237°
2026-05-03 21:14 33.55331 -86.73238 1701 ft 112 kts 234°
2026-05-03 21:14 33.54850 -86.73956 1697 ft 109 kts 236°
2026-05-03 21:14 33.54369 -86.74685 1695 ft 114 kts 238°
2026-05-03 21:14 33.53895 -86.75444 1707 ft 115 kts 237°
2026-05-03 21:15 33.53419 -86.76212 1695 ft 114 kts 239°
2026-05-03 21:15 33.52950 -86.76951 1711 ft 109 kts 239°
2026-05-03 21:15 33.52532 -86.77659 1561 ft 101 kts 239°
2026-05-03 21:15 33.52626 -86.78297 1390 ft 86 kts 338°
2026-05-03 21:16 33.53174 -86.78573 1233 ft 83 kts 331°
2026-05-03 21:16 33.53685 -86.78836 1217 ft 76 kts 333°
2026-05-03 21:16 33.54175 -86.79067 1079 ft 78 kts 350°
2026-05-03 21:16 33.54575 -86.78630 1015 ft 83 kts 46°
2026-05-03 21:17 33.54945 -86.78110 948 ft 84 kts 51°
2026-05-03 21:17 33.55159 -86.77709 858 ft 87 kts 48°
2026-05-03 21:17 33.55617 -86.76922 715 ft 83 kts 49°
2026-05-03 21:17 33.55920 -86.76387 681 ft 69 kts 47°
2026-05-03 21:18 33.56150 -86.76014 672 ft 43 kts 39°
2026-05-03 21:18 33.56247 -86.75841 674 ft 21 kts 57°
2026-05-03 21:18 33.56320 -86.75689 673 ft 22 kts 66°
2026-05-03 21:18 33.56350 -86.75542 673 ft 17 kts 84°
2026-05-03 21:19 33.56372 -86.75409 671 ft 16 kts 63°